• In Deutschland
  • Länderverzeichnis
  • Für 7 Tage
  • Wassertemperatur
  • Satellitenkarten
  • Wetterkarte
  • Widgets
  • user-avatar
    Anmelden

    Stündliche Wetter Armawir

    Heute, 26 Juli, Mittwoch

    Zeit Temperatur Niederschläge Wind Luftdruck Luftfeuchtigkeit
    00:00 +24°C° 0,2 mm 2 m/S 683 mmHg 61%
    01:00 +24°C° 0 mm 2 m/S 683 mmHg 62%
    02:00 +23°C° 0 mm 2 m/S 683 mmHg 64%
    03:00 +23°C° 0 mm 2 m/S 683 mmHg 65%
    04:00 +23°C° 0 mm 2 m/S 683 mmHg 64%
    05:00 +24°C° 0 mm 1 m/S 683 mmHg 63%
    06:00 +24°C° 0 mm 1 m/S 684 mmHg 63%
    07:00 +26°C° 0,1 mm 1 m/S 684 mmHg 54%
    08:00 +28°C° 0,1 mm 1 m/S 684 mmHg 46%
    09:00 +30°C° 0 mm 1 m/S 684 mmHg 41%
    10:00 +31°C° 0,2 mm 1 m/S 684 mmHg 37%
    11:00 +33°C° 0,2 mm 1 m/S 684 mmHg 33%
    12:00 +35°C° 0,2 mm 2 m/S 684 mmHg 29%
    13:00 +35°C° 0 mm 2 m/S 684 mmHg 28%
    14:00 +36°C° 0 mm 2 m/S 684 mmHg 27%
    15:00 +36°C° 0 mm 2 m/S 684 mmHg 25%
    16:00 +36°C° 0,1 mm 2 m/S 684 mmHg 27%
    17:00 +35°C° 0,1 mm 2 m/S 684 mmHg 29%
    18:00 +35°C° 0,1 mm 2 m/S 684 mmHg 31%
    19:00 +32°C° 0,1 mm 2 m/S 684 mmHg 37%
    20:00 +29°C° 0,1 mm 2 m/S 684 mmHg 43%
    21:00 +27°C° 0,1 mm 2 m/S 684 mmHg 49%
    22:00 +26°C° 0,2 mm 2 m/S 685 mmHg 52%
    23:00 +26°C° 0,2 mm 2 m/S 685 mmHg 55%

    Morgen, 27 Juli, Donnerstag

    Zeit Temperatur Niederschläge Wind Luftdruck Luftfeuchtigkeit
    00:00 +25°C° 0,2 mm 2 m/S 685 mmHg 58%
    01:00 +24°C° 0,2 mm 2 m/S 685 mmHg 59%
    02:00 +24°C° 0,2 mm 1 m/S 685 mmHg 61%
    03:00 +23°C° 0,2 mm 1 m/S 685 mmHg 62%
    04:00 +24°C° 0,1 mm 1 m/S 685 mmHg 62%
    05:00 +24°C° 0,1 mm 1 m/S 686 mmHg 61%
    06:00 +24°C° 0,1 mm 1 m/S 686 mmHg 61%
    07:00 +27°C° 0 mm 1 m/S 686 mmHg 54%
    08:00 +29°C° 0 mm 1 m/S 686 mmHg 46%
    09:00 +31°C° 0 mm 1 m/S 686 mmHg 39%
    10:00 +32°C° 0 mm 1 m/S 686 mmHg 35%
    11:00 +34°C° 0 mm 2 m/S 686 mmHg 31%
    12:00 +36°C° 0 mm 2 m/S 686 mmHg 27%
    13:00 +37°C° 0 mm 2 m/S 686 mmHg 25%
    14:00 +37°C° 0 mm 2 m/S 685 mmHg 24%
    15:00 +38°C° 0 mm 2 m/S 685 mmHg 22%
    16:00 +37°C° 0 mm 2 m/S 685 mmHg 23%
    17:00 +37°C° 0 mm 2 m/S 685 mmHg 25%
    18:00 +36°C° 0 mm 2 m/S 685 mmHg 27%
    19:00 +34°C° 0,1 mm 2 m/S 685 mmHg 33%
    20:00 +31°C° 0,1 mm 2 m/S 685 mmHg 40%
    21:00 +28°C° 0,1 mm 2 m/S 685 mmHg 46%
    22:00 +28°C° 0,1 mm 2 m/S 686 mmHg 50%
    23:00 +27°C° 0,1 mm 2 m/S 686 mmHg 53%

    übermorgen, 28 Juli, Freitag

    Zeit Temperatur Niederschläge Wind Luftdruck Luftfeuchtigkeit
    00:00 +26°C° 0,1 mm 2 m/S 686 mmHg 56%
    01:00 +26°C° 0 mm 2 m/S 686 mmHg 58%
    02:00 +25°C° 0 mm 2 m/S 686 mmHg 59%
    03:00 +25°C° 0 mm 1 m/S 686 mmHg 61%
    04:00 +25°C° 0 mm 1 m/S 686 mmHg 59%
    05:00 +25°C° 0 mm 1 m/S 686 mmHg 58%
    06:00 +26°C° 0 mm 1 m/S 687 mmHg 57%
    07:00 +28°C° 0 mm 1 m/S 687 mmHg 48%
    08:00 +30°C° 0 mm 2 m/S 687 mmHg 40%
    09:00 +34°C° 0 mm 2 m/S 687 mmHg 31%
    10:00 +35°C° 0 mm 3 m/S 687 mmHg 28%
    11:00 +37°C° 0 mm 3 m/S 687 mmHg 25%
    12:00 +38°C° 0 mm 3 m/S 687 mmHg 21%
    13:00 +39°C° 0 mm 3 m/S 686 mmHg 20%
    14:00 +40°C° 0 mm 3 m/S 686 mmHg 18%
    15:00 +40°C° 0 mm 3 m/S 686 mmHg 17%
    16:00 +40°C° 0 mm 3 m/S 686 mmHg 19%
    17:00 +39°C° 0 mm 3 m/S 685 mmHg 20%
    18:00 +38°C° 0 mm 2 m/S 685 mmHg 22%
    19:00 +36°C° 0 mm 2 m/S 686 mmHg 25%
    20:00 +32°C° 0 mm 2 m/S 686 mmHg 29%
    21:00 +30°C° 0 mm 2 m/S 686 mmHg 32%
    22:00 +29°C° 0 mm 2 m/S 686 mmHg 34%
    23:00 +28°C° 0 mm 2 m/S 686 mmHg 36%

    29 Juli, Samstag

    Zeit Temperatur Niederschläge Wind Luftdruck Luftfeuchtigkeit
    00:00 +27°C° 0 mm 1 m/S 687 mmHg 38%
    01:00 +27°C° 0 mm 1 m/S 686 mmHg 38%
    02:00 +26°C° 0 mm 1 m/S 686 mmHg 39%
    03:00 +26°C° 0 mm 1 m/S 686 mmHg 39%
    04:00 +26°C° 0 mm 1 m/S 687 mmHg 39%
    05:00 +26°C° 0 mm 1 m/S 687 mmHg 38%
    06:00 +27°C° 0 mm 1 m/S 687 mmHg 37%
    07:00 +29°C° 0 mm 1 m/S 687 mmHg 32%
    08:00 +32°C° 0 mm 1 m/S 688 mmHg 26%
    09:00 +35°C° 0 mm 2 m/S 688 mmHg 20%
    10:00 +37°C° 0 mm 2 m/S 688 mmHg 18%
    11:00 +38°C° 0 mm 2 m/S 688 mmHg 17%
    12:00 +39°C° 0 mm 3 m/S 687 mmHg 15%
    13:00 +40°C° 0 mm 3 m/S 687 mmHg 14%
    14:00 +40°C° 0 mm 3 m/S 687 mmHg 14%
    15:00 +42°C° 0 mm 3 m/S 686 mmHg 13%
    16:00 +40°C° 0 mm 3 m/S 686 mmHg 15%
    17:00 +39°C° 0 mm 2 m/S 686 mmHg 17%
    18:00 +38°C° 0 mm 2 m/S 686 mmHg 18%
    19:00 +35°C° 0 mm 2 m/S 687 mmHg 26%
    20:00 +33°C° 0 mm 3 m/S 687 mmHg 33%
    21:00 +29°C° 0 mm 3 m/S 688 mmHg 40%
    22:00 +28°C° 0,1 mm 3 m/S 688 mmHg 47%
    23:00 +27°C° 0,1 mm 3 m/S 688 mmHg 54%

    30 Juli, Sonntag

    Zeit Temperatur Niederschläge Wind Luftdruck Luftfeuchtigkeit
    00:00 +26°C° 0,1 mm 3 m/S 688 mmHg 61%
    01:00 +25°C° 0 mm 3 m/S 688 mmHg 64%
    02:00 +25°C° 0 mm 3 m/S 688 mmHg 66%
    03:00 +24°C° 0 mm 3 m/S 688 mmHg 69%
    04:00 +24°C° 0 mm 3 m/S 688 mmHg 68%
    05:00 +24°C° 0 mm 3 m/S 689 mmHg 67%
    06:00 +24°C° 0 mm 3 m/S 689 mmHg 67%
    07:00 +27°C° 0 mm 2 m/S 689 mmHg 58%
    08:00 +29°C° 0 mm 2 m/S 689 mmHg 50%
    09:00 +31°C° 0 mm 2 m/S 689 mmHg 42%
    10:00 +32°C° 0 mm 2 m/S 689 mmHg 37%
    11:00 +35°C° 0 mm 2 m/S 689 mmHg 32%
    12:00 +36°C° 0 mm 2 m/S 689 mmHg 28%
    13:00 +37°C° 0 mm 2 m/S 688 mmHg 26%
    14:00 +38°C° 0 mm 3 m/S 688 mmHg 25%
    15:00 +38°C° 0 mm 3 m/S 688 mmHg 24%
    16:00 +38°C° 0,2 mm 4 m/S 688 mmHg 26%
    17:00 +37°C° 0,2 mm 4 m/S 688 mmHg 29%
    18:00 +36°C° 0,2 mm 5 m/S 687 mmHg 32%
    19:00 +34°C° 0,1 mm 4 m/S 688 mmHg 37%
    20:00 +32°C° 0,1 mm 4 m/S 688 mmHg 41%
    21:00 +29°C° 0,1 mm 3 m/S 689 mmHg 46%
    22:00 +28°C° 0 mm 3 m/S 689 mmHg 48%
    23:00 +27°C° 0 mm 3 m/S 689 mmHg 51%

    31 Juli, Montag

    Zeit Temperatur Niederschläge Wind Luftdruck Luftfeuchtigkeit
    00:00 +27°C° 0 mm 2 m/S 689 mmHg 53%
    01:00 +26°C° 0,1 mm 2 m/S 689 mmHg 56%
    02:00 +25°C° 0,1 mm 2 m/S 689 mmHg 59%
    03:00 +25°C° 0,1 mm 2 m/S 689 mmHg 62%
    04:00 +25°C° 0 mm 2 m/S 689 mmHg 62%
    05:00 +25°C° 0 mm 2 m/S 689 mmHg 62%
    06:00 +25°C° 0 mm 2 m/S 690 mmHg 62%
    07:00 +27°C° 0 mm 2 m/S 690 mmHg 55%
    08:00 +29°C° 0 mm 2 m/S 690 mmHg 49%
    09:00 +31°C° 0 mm 2 m/S 690 mmHg 42%
    10:00 +34°C° 0,2 mm 2 m/S 690 mmHg 39%
    11:00 +35°C° 0,2 mm 2 m/S 690 mmHg 35%
    12:00 +36°C° 0,2 mm 3 m/S 689 mmHg 32%
    13:00 +37°C° 0,2 mm 3 m/S 689 mmHg 31%
    14:00 +37°C° 0,2 mm 3 m/S 689 mmHg 31%
    15:00 +38°C° 0,2 mm 4 m/S 689 mmHg 30%
    16:00 +37°C° 0,3 mm 4 m/S 689 mmHg 32%
    17:00 +36°C° 0,3 mm 4 m/S 689 mmHg 35%
    18:00 +35°C° 0,3 mm 5 m/S 689 mmHg 38%
    19:00 +33°C° 0,3 mm 4 m/S 689 mmHg 44%
    20:00 +30°C° 0,3 mm 3 m/S 689 mmHg 51%
    21:00 +28°C° 0,3 mm 3 m/S 690 mmHg 58%
    22:00 +27°C° 0,2 mm 2 m/S 690 mmHg 60%
    23:00 +27°C° 0,2 mm 2 m/S 690 mmHg 62%
    Mehr zeigen